Time+13,TemperatureF,Dew PointF,Humidity,Sea Level PressureIn,VisibilityMPH,Wind Direction,Wind SpeedMPH,Gust SpeedMPH,PrecipitationIn,Events,Conditions,WindDirDegrees,DateUTC
12:00 AM,77.0,69.8,78,29.80,24.9,Calm,Calm,-,N/A,,Mostly Cloudy,0,2012-12-15 11:00:00
1:00 AM,75,71,85,29.81,12,Calm,Calm,,,,Partly Cloudy,,2012-12-15 12:00:00
1:00 AM,75.2,71.6,89,29.80,24.9,Calm,Calm,-,N/A,,Mostly Cloudy,0,2012-12-15 12:00:00
2:00 AM,75.2,71.6,89,29.77,24.9,Calm,Calm,-,N/A,,Mostly Cloudy,0,2012-12-15 13:00:00
3:00 AM,73.4,71.6,94,29.77,24.9,Calm,Calm,-,N/A,,Mostly Cloudy,0,2012-12-15 14:00:00
4:00 AM,73,71,92,29.76,12,Calm,Calm,,,,Partly Cloudy,,2012-12-15 15:00:00
4:00 AM,73.4,71.6,94,29.74,24.9,Calm,Calm,-,N/A,,Mostly Cloudy,0,2012-12-15 15:00:00
5:00 AM,73.4,71.6,94,29.74,24.9,Calm,Calm,-,N/A,,Mostly Cloudy,0,2012-12-15 16:00:00
6:00 AM,73.4,71.6,94,29.74,24.9,Calm,Calm,-,N/A,,Mostly Cloudy,0,2012-12-15 17:00:00
7:00 AM,73,71,92,29.75,31,Calm,Calm,,,,Partly Cloudy,,2012-12-15 18:00:00
7:00 AM,73.4,71.6,94,29.74,31.1,Calm,Calm,-,N/A,,Mostly Cloudy,0,2012-12-15 18:00:00
8:00 AM,73.4,71.6,94,29.74,31.1,Calm,Calm,-,N/A,,Mostly Cloudy,0,2012-12-15 19:00:00
9:00 AM,78.8,73.4,83,29.77,31.1,SSW,4.6,-,N/A,,Mostly Cloudy,210,2012-12-15 20:00:00
10:00 AM,82,74,72,29.77,31,SW,5.8,,,,Partly Cloudy,230,2012-12-15 21:00:00
10:00 AM,82.4,75.2,79,29.77,31.1,SW,5.8,-,N/A,,Mostly Cloudy,230,2012-12-15 21:00:00
11:00 AM,86.0,75.2,70,29.74,31.1,South,5.8,-,N/A,,Mostly Cloudy,190,2012-12-15 22:00:00
12:00 PM,89.6,75.2,62,29.74,31.1,ESE,6.9,-,N/A,,Mostly Cloudy,120,2012-12-15 23:00:00
1:00 PM,90,76,56,29.72,31,SE,11.5,,,,Partly Cloudy,140,2012-12-16 00:00:00
1:00 PM,89.6,77.0,66,29.71,31.1,SE,11.5,-,N/A,,Mostly Cloudy,140,2012-12-16 00:00:00
2:00 PM,89.6,75.2,62,29.68,31.1,SSE,13.8,-,N/A,,Mostly Cloudy,150,2012-12-16 01:00:00
3:00 PM,89.6,77.0,66,29.65,31.1,ESE,13.8,-,N/A,,Mostly Cloudy,120,2012-12-16 02:00:00
4:00 PM,86,77,68,29.66,31,SE,11.5,,,,Partly Cloudy,130,2012-12-16 03:00:00
4:00 PM,86.0,77.0,74,29.65,31.1,SE,11.5,-,N/A,,Mostly Cloudy,130,2012-12-16 03:00:00
5:00 PM,86.0,75.2,70,29.65,31.1,SE,6.9,-,N/A,,Mostly Cloudy,140,2012-12-16 04:00:00
6:00 PM,84.2,77.0,79,29.65,31.1,South,9.2,-,N/A,,Mostly Cloudy,180,2012-12-16 05:00:00
7:00 PM,83,77,76,29.65,31,South,5.8,,,,Partly Cloudy,190,2012-12-16 06:00:00
7:00 PM,84.2,77.0,79,29.65,31.1,South,5.8,-,N/A,,Mostly Cloudy,190,2012-12-16 06:00:00
8:00 PM,82.4,77.0,84,29.65,28.0,SSE,5.8,-,N/A,,Mostly Cloudy,150,2012-12-16 07:00:00
9:00 PM,80.6,75.2,84,29.65,28.0,SSE,5.8,-,N/A,,Mostly Cloudy,150,2012-12-16 08:00:00
10:00 PM,81,74,74,29.66,12,SSE,5.8,,,,Partly Cloudy,160,2012-12-16 09:00:00
10:00 PM,80.6,73.4,79,29.65,24.9,SSE,5.8,-,N/A,,Mostly Cloudy,160,2012-12-16 09:00:00
11:00 PM,80.6,75.2,84,29.65,24.9,South,3.5,-,N/A,,Mostly Cloudy,180,2012-12-16 10:00:00